Location: Aranbee
(34.0885°N, 118.2342°W)
Time: 05:47:50
(UTC+00:00)

Tiros 1 - All Passes

Search period start: 27 May 2022 00:00
Search period end: 06 June 2022 00:00
Orbit: 629 x 663 km, 48.4° (Epoch: 26 May)

Date Brightness Start Highest point End Pass type
(mag) Time Alt. Az. Time Alt. Az. Time Alt. Az.
27 May - 06:01:39 10° S 06:04:39 17° SE 06:07:40 10° E night (unlit)
27 May - 07:41:48 10° WSW 07:46:23 71° NW 07:51:02 10° NE visible
27 May - 09:25:47 10° WNW 09:29:11 20° NNW 09:32:37 10° NNE visible
27 May - 11:10:25 10° NNW 11:12:49 14° N 11:15:13 10° NNE visible
27 May - 12:52:27 10° NNW 12:56:19 25° NNE 13:00:11 10° ENE daylight
27 May - 14:34:10 10° NW 14:38:53 80° SW 14:43:38 10° SE daylight
27 May - 16:18:59 10° WSW 16:20:28 11° SW 16:21:58 10° SW daylight
28 May - 06:25:44 10° SSW 06:30:05 43° SE 06:34:28 10° ENE visible
28 May - 08:08:06 10° W 08:12:19 34° NNW 08:16:33 10° NE visible
28 May - 09:52:56 10° NW 09:55:35 15° N 09:58:13 10° NNE visible
28 May - 11:36:21 10° NNW 11:39:17 16° NNE 11:42:13 10° NE visible
28 May - 13:17:54 10° NW 13:22:23 43° NNE 13:26:55 10° ESE daylight
28 May - 15:00:16 10° WNW 15:04:28 32° SW 15:08:42 10° SSE daylight
29 May - 05:11:22 10° SSE 05:14:04 15° SE 05:16:45 10° E night (unlit)
29 May - 06:51:08 10° SW 06:55:44 78° NW 07:00:22 10° NE visible
29 May - 08:35:00 10° WNW 08:38:29 21° NNW 08:42:00 10° NNE visible
29 May - 10:19:43 10° NNW 10:22:04 14° N 10:24:25 10° NNE visible
29 May - 12:01:51 10° NNW 12:05:36 23° NNE 12:09:22 10° ENE visible
29 May - 13:43:31 10° NW 13:48:14 87° SW 13:52:58 10° SE daylight
29 May - 15:27:46 10° WSW 15:29:52 13° SW 15:31:58 10° SSW daylight
30 May - 05:35:12 10° SSW 05:39:28 39° SE 05:43:46 10° ENE night (unlit)
30 May - 07:17:21 10° W 07:21:37 37° NNW 07:25:56 10° NE visible
30 May - 09:02:08 10° NW 09:04:51 15° N 09:07:33 10° NNE visible
30 May - 10:45:43 10° NNW 10:48:32 16° NNE 10:51:23 10° NE visible
30 May - 12:27:17 10° NW 12:31:42 40° NNE 12:36:09 10° E daylight
30 May - 14:09:32 10° WNW 14:13:50 36° SW 14:18:09 10° SSE daylight
31 May - 04:21:09 10° SSE 04:23:27 14° SE 04:25:45 10° E night (unlit)
31 May - 06:00:29 10° SW 06:05:05 86° NW 06:09:44 10° NE visible
31 May - 07:44:11 10° WNW 07:47:46 22° NNW 07:51:22 10° NNE visible
31 May - 09:29:00 10° NNW 09:31:19 13° N 09:33:39 10° NNE visible
31 May - 11:11:15 10° NNW 11:14:53 22° NNE 11:18:32 10° ENE visible
31 May - 12:52:52 10° NW 12:57:34 85° NE 13:02:18 10° SE daylight
31 May - 14:36:43 10° W 14:39:15 14° SW 14:41:47 10° SSW daylight
01 Jun - 04:44:40 10° SSW 04:48:50 35° SE 04:53:01 10° ENE visible
01 Jun - 06:26:37 10° W 06:30:57 40° NNW 06:35:18 10° NE visible
01 Jun - 08:11:20 10° NW 08:14:07 15° N 08:16:53 10° NNE visible
01 Jun - 09:55:05 10° NNW 09:57:48 15° N 10:00:32 10° NE visible
01 Jun - 11:36:41 10° NW 11:41:00 37° NNE 11:45:22 10° E visible
01 Jun - 13:18:49 10° WNW 13:23:11 40° SW 13:27:36 10° SSE daylight
02 Jun - 03:31:04 10° SSE 03:32:51 12° SE 03:34:38 10° ESE visible
02 Jun - 05:09:50 10° SW 05:14:26 87° SE 05:19:04 10° NE visible
02 Jun - 06:53:22 10° WNW 06:57:03 23° NNW 07:00:44 10° NNE visible
02 Jun - 08:38:16 10° NNW 08:40:34 13° N 08:42:53 10° NNE visible
02 Jun - 10:20:38 10° NNW 10:24:09 21° NNE 10:27:42 10° ENE visible
02 Jun - 12:02:13 10° NW 12:06:54 77° NE 12:11:36 10° SE visible
02 Jun - 13:45:46 10° W 13:48:37 16° SW 13:51:30 10° SSW daylight
03 Jun - 03:54:09 10° SSW 03:58:13 31° SE 04:02:17 10° ENE visible
03 Jun - 05:35:52 10° WSW 05:40:16 43° NNW 05:44:40 10° NE visible
03 Jun - 07:20:31 10° NW 07:23:22 16° NNW 07:26:13 10° NNE visible
03 Jun - 09:04:26 10° NNW 09:07:03 15° N 09:09:41 10° NE visible
03 Jun - 10:46:03 10° NW 10:50:18 34° NNE 10:54:35 10° E visible
03 Jun - 12:28:06 10° WNW 12:32:33 44° SW 12:37:02 10° SSE daylight
04 Jun - 02:41:16 10° SE 02:42:14 11° SE 02:43:13 10° ESE daylight
04 Jun - 04:19:11 10° SW 04:23:47 79° SE 04:28:24 10° NE visible
04 Jun - 06:02:35 10° WNW 06:06:20 24° NNW 06:10:07 10° NNE visible
04 Jun - 07:47:30 10° NNW 07:49:50 13° N 07:52:08 10° NNE visible
04 Jun - 09:30:01 10° NNW 09:33:26 20° NNE 09:36:51 10° ENE visible
04 Jun - 11:11:35 10° NW 11:16:13 70° NE 11:20:54 10° ESE visible
04 Jun - 12:54:51 10° W 12:58:00 18° SW 13:01:10 10° S daylight
05 Jun - 03:03:39 10° SSW 03:07:35 28° SE 03:11:31 10° ENE daylight
05 Jun - 04:45:08 10° WSW 04:49:35 47° NNW 04:54:02 10° NE visible
05 Jun - 06:29:41 10° NW 06:32:37 16° NNW 06:35:34 10° NNE visible
05 Jun - 08:13:46 10° NNW 08:16:18 14° N 08:18:51 10° NE visible
05 Jun - 09:55:26 10° NW 09:59:36 32° NNE 10:03:48 10° E visible
05 Jun - 11:37:24 10° WNW 11:41:54 49° SW 11:46:26 10° SSE visible
